Huntington, WV

5:19 AM EST on December 16, 2019 (GMT -0500)
Tri-State / Ferguson

Weather History for KHTS - October, 2019

Change the Weather History Date:

Thursday, October 31, 2019

  Actual Average Record
Temperature  
Mean Temperature 54 °F 52 °F  
Max Temperature 70 °F 63 °F 84 °F (1950)
Min Temperature 37 °F 41 °F 23 °F (1906)
Degree Days  
Heating Degree Days 11 13  
Month to date heating degree days 189 280  
Since 1 July heating degree days 189 339  
Cooling Degree Days 0 0  
Month to date cooling degree days 66 21  
Year to date cooling degree days 1511 1132  
Growing Degree Days 4 (Base 50)    
Moisture  
Dew Point 54 °F    
Average Humidity 82    
Maximum Humidity 93    
Minimum Humidity 70    
Precipitation  
Precipitation 0.87 in 0.10 in 1.19 in (1942)
Month to date precipitation 6.02 2.81  
Year to date precipitation 40.49 35.84  
Snow  
Snow T in 0.00 in 1.50 in (1993)
Month to date snowfall T 0.1  
Since 1 September snowfall T 0.1  
Snow Depth 0.00 in    
Sea Level Pressure  
Sea Level Pressure 29.81 in    
Wind  
Wind Speed 9 mph (SW)    
Max Wind Speed 26 mph    
Max Gust Speed 40 mph    
Visibility 7 miles    
Events Fog , Rain    
T = Trace of Precipitation, MM = Missing Value Source: NWS Daily Summary

Daily Weather History Graph

Daily Weather History Graph

Search for Another Location

Airport or City:

Astronomy

Oct. 31, 2019 Rise Set
Actual Time 7:55 AM EDT 6:31 PM EDT
Civil Twilight 7:27 AM EDT 6:59 PM EDT
Nautical Twilight 6:56 AM EDT 7:30 PM EDT
Astronomical Twilight 6:25 AM EDT 8:01 PM EDT
Moon 11:40 AM EDT (10/31) 9:29 PM EDT (10/31)
Length of Visible Light 11h 31m
Length of Day
10h 36m
Waxing Crescent, 15% of the Moon is Illuminated
Oct 31
Waxing Crescent
Nov 4
First Quarter
Nov 12
Full
Nov 19
Last Quarter
Nov 26
New

Hourly Weather History & Observations

Time (EDT) Temp. Windchill Dew Point Humidity Pressure Visibility Wind Dir Wind Speed Gust Speed Precip Events Conditions
12:04 AM 63.0 °F - 61.0 °F 93% 29.87 in 1.5 mi Calm Calm - 0.01 in Rain Light Rain
12:16 AM 63.0 °F - 62.1 °F 97% 29.87 in 2.0 mi Calm Calm - 0.03 in Rain Light Rain
12:24 AM 63.0 °F - 61.0 °F 93% 29.87 in 1.5 mi Calm Calm - 0.04 in Rain Rain
12:31 AM 63.0 °F - 62.1 °F 97% 29.87 in 1.8 mi Calm Calm - 0.06 in Rain Light Rain
12:39 AM 62.6 °F - 62.6 °F 100% 29.87 in 2.0 mi Calm Calm - N/A Rain Light Rain
12:46 AM 62.6 °F - 62.6 °F 100% 29.86 in 1.2 mi ESE 3.5 mph - 0.07 in Rain Light Rain
12:51 AM 62.1 °F - 61.0 °F 96% 29.85 in 1.0 mi Calm Calm - 0.08 in Rain Light Rain
1:19 AM 62.1 °F - 61.0 °F 96% 29.85 in 0.5 mi ESE 4.6 mph - 0.01 in Fog Fog
1:35 AM 63.0 °F - 62.1 °F 97% 29.85 in 2.0 mi ESE 3.5 mph - 0.01 in   Overcast
1:40 AM 62.1 °F - 62.1 °F 100% 29.85 in 1.8 mi ESE 3.5 mph - 0.01 in   Overcast
1:49 AM 62.6 °F - 62.6 °F 100% 29.84 in 3.0 mi Calm Calm - 0.01 in   Overcast
1:51 AM 63.0 °F - 62.1 °F 97% 29.83 in 4.0 mi Calm Calm - 0.01 in   Overcast
2:51 AM 64.0 °F - 63.0 °F 96% 29.82 in 10.0 mi Calm Calm - N/A   Overcast
3:21 AM 64.0 °F - 62.1 °F 93% 29.82 in 10.0 mi SSW 4.6 mph - N/A   Scattered Clouds
3:32 AM 64.0 °F - 62.1 °F 93% 29.81 in 10.0 mi SSW 4.6 mph - N/A   Mostly Cloudy
3:51 AM 64.0 °F - 62.1 °F 93% 29.78 in 10.0 mi South 4.6 mph - N/A   Scattered Clouds
4:42 AM 66.0 °F - 63.0 °F 90% 29.78 in 10.0 mi SSW 4.6 mph - N/A   Mostly Cloudy
4:51 AM 64.9 °F - 63.0 °F 93% 29.76 in 10.0 mi Calm Calm - N/A   Mostly Cloudy
5:05 AM 64.9 °F - 63.0 °F 93% 29.76 in 10.0 mi Calm Calm - N/A   Mostly Cloudy
5:40 AM 66.0 °F - 63.0 °F 90% 29.75 in 10.0 mi ESE 3.5 mph - N/A   Mostly Cloudy
5:51 AM 64.9 °F - 63.0 °F 93% 29.73 in 10.0 mi Calm Calm - N/A   Overcast
6:51 AM 66.0 °F - 63.0 °F 90% 29.73 in 7.0 mi SSE 4.6 mph - 0.01 in Rain Light Rain
8:51 AM 66.0 °F - 64.0 °F 93% 29.64 in 10.0 mi SE 4.6 mph - 0.00 in   Partly Cloudy
9:51 AM 68.0 °F - 64.0 °F 87% 29.62 in 10.0 mi SSE 8.1 mph - 0.00 in   Partly Cloudy
10:51 AM 69.1 °F - 64.0 °F 84% 29.59 in 10.0 mi SSE 8.1 mph - 0.00 in Rain Light Rain
11:49 AM 68.0 °F - 64.4 °F 88% 29.58 in 2.5 mi SW 3.5 mph - 0.07 in Rain Rain
11:58 AM 66.9 °F - 66.0 °F 97% 29.58 in 1.5 mi SW 3.5 mph - 0.03 in Rain Rain
12:14 PM 66.9 °F - 66.0 °F 97% 29.58 in 0.5 mi SSW 8.1 mph - 0.14 in Fog , Rain Heavy Rain
12:23 PM 66.9 °F - 66.0 °F 97% 29.58 in 1.0 mi WSW 9.2 mph - 0.26 in Rain Heavy Rain
12:27 PM 66.9 °F - 66.0 °F 97% 29.58 in 0.8 mi West 10.4 mph - 0.29 in Rain Heavy Rain
12:36 PM 66.0 °F - 64.0 °F 93% 29.59 in 2.0 mi West 15.0 mph 19.6 mph 0.36 in Rain Light Rain
12:51 PM 63.0 °F - 60.1 °F 90% 29.62 in 1.2 mi West 16.1 mph 32.2 mph 0.43 in Rain Heavy Rain
1:11 PM 60.1 °F - 57.9 °F 93% 29.66 in 2.0 mi WSW 17.3 mph 28.8 mph 0.15 in Rain Heavy Rain
1:26 PM 57.9 °F - 55.0 °F 90% 29.66 in 1.8 mi WSW 18.4 mph 32.2 mph 0.25 in Rain Rain
1:30 PM 57.9 °F - 54.0 °F 87% 29.66 in 3.0 mi West 17.3 mph 32.2 mph 0.26 in Rain Rain
1:33 PM 57.0 °F - 54.0 °F 89% 29.65 in 2.5 mi West 15.0 mph 32.2 mph 0.27 in Rain Rain
1:51 PM 57.0 °F - 52.0 °F 83% 29.66 in 10.0 mi WSW 13.8 mph 27.6 mph 0.30 in Rain Light Rain
2:25 PM 55.0 °F - 50.0 °F 83% 29.68 in 10.0 mi WSW 17.3 mph 28.8 mph 0.01 in Rain Light Rain
2:51 PM 53.1 °F - 48.9 °F 86% 29.70 in 10.0 mi WSW 18.4 mph 33.4 mph 0.01 in   Overcast
3:51 PM 48.9 °F - 44.1 °F 83% 29.76 in 10.0 mi WSW 12.7 mph 31.1 mph 0.00 in   Overcast
4:51 PM 44.1 °F 36.5 °F 39.0 °F 82% 29.86 in 10.0 mi West 17.3 mph 32.2 mph N/A   Overcast
5:51 PM 42.1 °F 34.9 °F 35.1 °F 76% 29.90 in 10.0 mi WSW 13.8 mph 28.8 mph 0.00 in Rain Light Rain
6:22 PM 42.1 °F 33.6 °F 34.0 °F 73% 29.93 in 10.0 mi WSW 18.4 mph 28.8 mph 0.00 in   Mostly Cloudy
6:51 PM 41.0 °F 32.8 °F 33.1 °F 73% 29.96 in 10.0 mi West 16.1 mph 31.1 mph 0.00 in   Overcast
7:23 PM 39.0 °F 28.8 °F 32.0 °F 76% 30.02 in 10.0 mi WSW 21.9 mph 34.5 mph 0.00 in   Overcast
7:51 PM 37.9 °F 29.2 °F 30.0 °F 73% 30.07 in 10.0 mi WSW 15.0 mph 31.1 mph 0.00 in   Overcast
8:51 PM 37.9 °F 28.9 °F 28.9 °F 70% 30.10 in 10.0 mi WSW 16.1 mph 26.5 mph N/A   Overcast
9:48 PM 37.4 °F 28.9 °F 28.4 °F 70% 30.14 in 10.0 mi West 13.8 mph 23.0 mph N/A   Overcast
9:51 PM 37.9 °F 29.2 °F 30.0 °F 73% 30.14 in 10.0 mi WSW 15.0 mph 24.2 mph N/A   Overcast
10:51 PM 37.9 °F 29.6 °F 28.9 °F 70% 30.14 in 10.0 mi WSW 13.8 mph 24.2 mph N/A   Overcast
11:18 PM 37.9 °F 30.5 °F 28.9 °F 70% 30.15 in 10.0 mi WSW 11.5 mph 17.3 mph N/A   Overcast
11:28 PM 37.0 °F 29.8 °F 28.9 °F 73% 30.16 in 10.0 mi WSW 10.4 mph - N/A   Overcast
11:51 PM 37.0 °F 31.0 °F 28.9 °F 73% 30.16 in 10.0 mi West 8.1 mph - N/A   Overcast